Regional Weather Roundup
Issued by NWS Bismarck, ND

Home | Current Version | Previous Version | Text Only | Print | Product List | Glossary On
Versions: 1 2 3 4 5 6 7 8 9 10 11 12 13 14 15 16 17 18 19 20 21 22 23 24 25 26 27 28 29 30 31 32 33 34 35 36 37 38 39 40 41 42 43 44 45 46 47 48 49 50
000
ASUS43 KBIS 271659
RWRBIS

NWR BROADCAST TEXT
NATIONAL WEATHER SERVICE BISMARCK ND
1100 AM CST THU NOV 27 2014

NOTE: "FAIR" INDICATES FEW OR NO CLOUDS BELOW 12,000 FEET WITH NO
SIGNIFICANT WEATHER AND/OR OBSTRUCTIONS TO VISIBILITY.


CITY           SKY/WX    TMP DP  RH WIND       PRES   REMARKS
WILLISTON      CLOUDY    20  12  71 SE8       30.05F WCI  10
MINOT          HAZE      10   5  80 SE10      30.18F VSB 3/4 WCI  -4
MINOT AFB      NOT AVBL
BISMARCK       CLOUDY     5   1  83 SE9       30.27F WCI  -9
DICKINSON      NOT AVBL
GARRISON         N/A     10   8  92 S12       30.19F WCI  -5
HETTINGER ARPT CLOUDY    17  13  84 SE12      30.07F WCI   4
JAMESTOWN      NOT AVBL
CARRINGTON     FAIR      -2  -8  78 SE10      30.31F WCI -19
CROSBY         FAIR      18  14  86 SE8       30.08F WCI   7
$$

CITY           SKY/WX    TMP DP  RH WIND       PRES   REMARKS
GRAND FORKS    MOSUNNY    1  -5  75 S12       30.46F WCI -16
GRAND FORKS AF NOT AVBL
DEVILS LAKE    SUNNY      1  -9  60 S12       30.30F WCI -15
FARGO          SUNNY      0  -6  76 S5        30.48F WCI -10
GRAFTON        FAIR       1  -4  78 S14       30.44F WCI -17
$$

CITY           SKY/WX    TMP DP  RH WIND       PRES   REMARKS
ABERDEEN       SUNNY      2  -6  69 S12       30.42F WCI -15
MOBRIDGE       CLOUDY    10   2  69 SE12      30.24F WCI  -5
BUFFALO          N/A     20  17  88 S22       29.94F WCI   3
RAPID CITY     CLOUDY    21  20  96 SE12      30.07F WCI   9
GLASGOW        FRZ RAIN  25  21  85 E25       29.82F FOG     WCI   9
SIDNEY         CLOUDY    27  19  74 SE12      30.02F WCI  16
WOLF POINT     LGT SNOW  24  19  81 E12       29.94F WCI  13
GLENDIVE       PTSUNNY   27  21  80 SE13      29.95F WCI  16
MILES CITY     CLOUDY    30  24  78 S13       29.92R WCI  20
BAKER          CLOUDY    24  20  84 SE18      29.96F WCI  10
$$

CITY           SKY/WX    TMP DP  RH WIND       PRES   REMARKS
BILLINGS       CLOUDY    41  30  65 SW21G28   29.91S
GREAT FALLS    MOSUNNY   49  33  54 SW26G35   29.79R
$$



USA.gov is the U.S. government's official web portal to all federal, state and local government web resources and services.